GOLDWX Weather Reports


time (UTC)temp
C
wind
direction
speed
KPH
gust
KPH
rain 1hr
cm
rain 24hr
cm
rain mn
cm
humidity
%
barometer
mb
20260506103112 9 178 8.0 11.3 0.00 0.00 0.00 61 1015.6
20260506102612 9 178 8.0 11.3 0.00 0.00 0.00 60 1015.4
20260506101610 10 180 6.4 11.3 0.00 0.00 0.00 60 1015.2
20260506101109 10 178 4.8 8.0 0.00 0.00 0.00 59 1015.1
20260506100107 10 180 8.0 8.0 0.00 0.00 0.00 59 1015.1
20260506095607 10 180 8.0 9.7 0.00 0.00 0.00 59 1015.1
20260506094605 10 180 8.0 11.3 0.00 0.00 0.00 59 1015.0
20260506094104 10 171 4.8 11.3 0.00 0.00 0.00 58 1015.1
20260506093104 10 180 9.7 11.3 0.00 0.00 0.00 58 1015.1
20260506092602 10 180 6.4 9.7 0.00 0.00 0.00 57 1015.1
20260506091600 11 180 1.6 6.4 0.00 0.00 0.00 54 1015.0
20260506091059 11 180 4.8 6.4 0.00 0.00 0.00 55 1014.9
20260506090057 11 180 6.4 8.0 0.00 0.00 0.00 55 1015.0
20260506085556 11 180 8.0 9.7 0.00 0.00 0.00 54 1014.9
20260506084555 11 180 8.0 9.7 0.00 0.00 0.00 53 1014.9
20260506084054 12 180 8.0 8.0 0.00 0.00 0.00 51 1014.8
20260506083052 12 180 3.2 3.2 0.00 0.00 0.00 45 1014.9
20260506082551 13 0 0.0 1.6 0.00 0.00 0.00 44 1014.8
20260506081550 13 315 3.2 6.4 0.00 0.00 0.00 43 1014.8
20260506081049 13 301 6.4 8.0 0.00 0.00 0.00 43 1014.8
20260506073042 13 357 14.5 19.3 0.00 0.00 0.00 43 1014.8
20260506072541 13 0 17.7 17.7 0.00 0.00 0.00 43 1014.9
20260506071540 13 0 8.0 9.7 0.00 0.00 0.00 42 1014.9
20260506071039 13 0 6.4 11.3 0.00 0.00 0.00 42 1014.9
20260506061528 12 316 4.8 11.3 0.00 0.00 0.00 41 1014.6
20260506061028 12 322 11.3 11.3 0.00 0.00 0.00 41 1014.5
20260506051017 11 206 4.8 11.3 0.00 0.00 0.00 43 1014.2
20260506044512 11 180 8.0 11.3 0.00 0.00 0.00 42 1013.9
20260506044012 12 180 9.7 12.9 0.00 0.00 0.00 41 1013.8
20260506043010 12 180 9.7 11.3 0.00 0.00 0.00 40 1013.7
20260506042509 12 181 6.4 9.7 0.00 0.00 0.00 39 1013.6
20260506041507 13 180 8.0 8.0 0.00 0.00 0.00 37 1013.4
20260506041007 13 179 4.8 4.8 0.00 0.00 0.00 36 1013.3
20260506040006 15 180 3.2 3.2 0.00 0.00 0.00 32 1013.2
20260506035504 15 309 3.2 3.2 0.00 0.00 0.00 31 1013.1
20260506034502 15 315 1.6 3.2 0.00 0.00 0.00 30 1012.8
20260506034002 15 315 3.2 3.2 0.00 0.00 0.00 31 1012.8
20260506032459 16 346 3.2 6.4 0.00 0.00 0.00 30 1012.5
20260506031457 16 357 4.8 8.0 0.00 0.00 0.00 30 1012.4
20260506030957 16 345 6.4 11.3 0.00 0.00 0.00 30 1012.3
20260506025452 16 340 6.4 12.9 0.00 0.00 0.00 29 1012.1
20260506024450 17 356 8.0 16.1 0.00 0.00 0.00 29 1011.9
20260506023950 17 350 11.3 16.1 0.00 0.00 0.00 29 1011.8
20260506022449 18 349 17.7 24.1 0.00 0.00 0.00 28 1011.6
20260506021445 18 340 12.9 22.5 0.00 0.00 0.00 28 1011.4
20260506020946 18 353 22.5 24.1 0.00 0.00 0.00 28 1011.4
20260506015943 18 342 16.1 27.4 0.00 0.00 0.00 27 1011.2
20260506015442 18 351 17.7 29.0 0.00 0.00 0.00 26 1011.1
20260506014439 19 332 25.7 25.7 0.00 0.00 0.00 26 1010.9
20260506013939 19 340 20.9 29.0 0.00 0.00 0.00 25 1010.8
20260506012937 20 346 14.5 20.9 0.00 0.00 0.00 22 1010.8
20260506012436 20 319 9.7 16.1 0.00 0.00 0.00 21 1010.8
20260506011434 20 357 17.7 19.3 0.00 0.00 0.00 21 1010.7
20260506010934 20 323 8.0 14.5 0.00 0.00 0.00 21 1010.7
20260506005932 20 40 9.7 19.3 0.00 0.00 0.00 20 1010.7
20260506005431 21 0 19.3 22.5 0.00 0.00 0.00 19 1010.6
20260506004429 21 357 8.0 17.7 0.00 0.00 0.00 20 1010.6
20260506003929 21 346 11.3 22.5 0.00 0.00 0.00 20 1010.5
20260506002927 22 344 11.3 14.5 0.00 0.00 0.00 20 1010.4
20260506002426 22 358 6.4 16.1 0.00 0.00 0.00 19 1010.4
20260506001424 23 331 12.9 22.5 0.00 0.00 0.00 20 1010.3
20260506000924 23 339 12.9 16.1 0.00 0.00 0.00 19 1010.3
20260505235922 23 288 9.7 14.5 0.00 0.00 0.00 19 1010.3
20260505235421 23 307 8.0 12.9 0.00 0.00 0.00 20 1010.2
20260505234419 22 274 12.9 12.9 0.00 0.00 0.00 21 1010.2
20260505233919 21 315 8.0 17.7 0.00 0.00 0.00 22 1010.3
20260505232917 21 358 14.5 16.1 0.00 0.00 0.00 21 1010.3
20260505232416 21 341 4.8 9.7 0.00 0.00 0.00 22 1010.4
20260505231414 20 225 4.8 8.0 0.00 0.00 0.00 21 1010.5
20260505230914 21 321 8.0 19.3 0.00 0.00 0.00 22 1010.4
20260505225410 21 318 9.7 19.3 0.00 0.00 0.00 22 1010.5
20260505224407 21 354 6.4 24.1 0.00 0.00 0.00 21 1010.6
20260505223907 21 352 20.9 20.9 0.00 0.00 0.00 22 1010.5
20260505222905 20 317 11.3 12.9 0.00 0.00 0.00 20 1010.6
20260505222404 20 358 8.0 12.9 0.00 0.00 0.00 19 1010.7
20260505221403 21 127 4.8 11.3 0.00 0.00 0.00 18 1010.8
20260505220902 21 45 4.8 29.0 0.00 0.00 0.00 17 1010.8
20260505215900 22 283 4.8 11.3 0.00 0.00 0.00 17 1010.7
20260505215359 22 11 3.2 8.0 0.00 0.00 0.00 18 1010.7
20260505214357 23 51 3.2 14.5 0.00 0.00 0.00 17 1010.8
20260505213857 23 0 9.7 16.1 0.00 0.00 0.00 19 1010.7
20260505212855 22 322 9.7 12.9 0.00 0.00 0.00 19 1010.9
20260505212354 21 223 3.2 9.7 0.00 0.00 0.00 18 1011.0
20260505211352 23 86 9.7 9.7 0.00 0.00 0.00 18 1010.9
20260505210851 22 327 6.4 20.9 0.00 0.00 0.00 19 1010.9
20260505205850 22 315 8.0 14.5 0.00 0.00 0.00 19 1011.0
20260505205350 22 41 14.5 16.1 0.00 0.00 0.00 19 1011.1
20260505204348 22 57 0.0 8.0 0.00 0.00 0.00 21 1011.1
20260505203846 21 339 4.8 11.3 0.00 0.00 0.00 21 1011.2
20260505203348 21 331 6.4 24.1 0.00 0.00 0.00 21 1011.2
20260505202845 21 358 8.0 11.3 0.00 0.00 0.00 21 1011.2
20260505202344 22 193 4.8 9.7 0.00 0.00 0.00 20 1011.2
20260505201343 21 50 1.6 20.9 0.00 0.00 0.00 20 1011.3
20260505200841 21 327 9.7 11.3 0.00 0.00 0.00 23 1011.2
20260505195840 21 34 11.3 16.1 0.00 0.00 0.00 21 1011.3
20260505195339 21 1 14.5 19.3 0.00 0.00 0.00 22 1011.4
20260505194337 20 356 4.8 14.5 0.00 0.00 0.00 22 1011.5
20260505193836 20 355 8.0 19.3 0.00 0.00 0.00 24 1011.5
20260505192835 20 8 16.1 17.7 0.00 0.00 0.00 24 1011.6
20260505192334 19 351 9.7 19.3 0.00 0.00 0.00 25 1011.5
20260505191332 19 43 16.1 19.3 0.00 0.00 0.00 25 1011.5
20260505190831 18 5 3.2 8.0 0.00 0.00 0.00 27 1011.5
20260505185830 17 78 6.4 20.9 0.00 0.00 0.00 27 1011.7
20260505185329 17 22 11.3 16.1 0.00 0.00 0.00 27 1011.7
20260505184329 17 6 6.4 16.1 0.00 0.00 0.00 29 1011.6
20260505183826 16 13 9.7 25.7 0.00 0.00 0.00 29 1011.7
20260505182324 16 46 14.5 20.9 0.00 0.00 0.00 29 1011.7
20260505181322 16 356 8.0 19.3 0.00 0.00 0.00 31 1011.5
20260505180821 16 23 12.9 14.5 0.00 0.00 0.00 31 1011.7
20260505175820 16 23 14.5 17.7 0.00 0.00 0.00 31 1011.6
20260505175319 16 13 14.5 16.1 0.00 0.00 0.00 32 1011.5
20260505174317 16 41 11.3 24.1 0.00 0.00 0.00 32 1011.6
20260505173816 16 3 14.5 19.3 0.00 0.00 0.00 33 1011.5
20260505172815 16 35 9.7 12.9 0.00 0.00 0.00 32 1011.4
20260505172314 16 24 8.0 12.9 0.00 0.00 0.00 33 1011.4
20260505171312 15 346 6.4 16.1 0.00 0.00 0.00 35 1011.4
20260505170811 15 187 4.8 16.1 0.00 0.00 0.00 34 1011.4
20260505165809 15 8 9.7 16.1 0.00 0.00 0.00 34 1011.4
20260505165309 15 0 3.2 9.7 0.00 0.00 0.00 35 1011.3
20260505164307 15 52 8.0 11.3 0.00 0.00 0.00 35 1011.4
20260505163806 15 58 3.2 14.5 0.00 0.00 0.00 36 1011.3
20260505162804 15 28 6.4 16.1 0.00 0.00 0.00 36 1011.3
20260505162306 15 0 3.2 17.7 0.00 0.00 0.00 38 1011.3
20260505161302 15 15 9.7 17.7 0.00 0.00 0.00 39 1011.4
20260505160801 15 9 12.9 16.1 0.00 0.00 0.00 38 1011.2
20260505152754 13 315 4.8 11.3 0.00 0.00 0.00 43 1011.2
20260505152254 13 25 4.8 8.0 0.00 0.00 0.00 44 1011.2
20260505151252 12 0 3.2 9.7 0.00 0.00 0.00 46 1011.1
20260505150751 12 0 4.8 8.0 0.00 0.00 0.00 46 1011.1
20260505124227 8 272 1.6 4.8 0.00 0.00 0.00 52 1010.4
20260505123727 8 226 1.6 4.8 0.00 0.00 0.00 52 1010.3
20260505122725 8 270 3.2 4.8 0.00 0.00 0.00 52 1010.3
20260505122224 8 272 3.2 4.8 0.00 0.00 0.00 52 1010.3
20260505121222 8 301 3.2 6.4 0.00 0.00 0.00 52 1010.2
20260505120721 8 291 4.8 4.8 0.00 0.00 0.00 53 1010.2
20260505115719 8 225 0.0 3.2 0.00 0.00 0.00 54 1010.1
20260505115219 8 225 3.2 3.2 0.00 0.00 0.00 53 1010.2
20260505114217 8 315 1.6 3.2 0.00 0.00 0.00 52 1010.1
20260505113716 8 342 1.6 3.2 0.00 0.00 0.00 52 1010.2
20260505112714 9 45 1.6 3.2 0.00 0.00 0.00 52 1010.0
20260505112214 9 270 3.2 6.4 0.00 0.00 0.00 52 1010.0
20260505111212 9 270 4.8 4.8 0.00 0.00 0.00 52 1010.0
20260505110711 9 277 3.2 4.8 0.00 0.00 0.00 52 1010.1